Location: Unspecified
(49.9820°N, 20.4363°E)
Time: 20:14:21
(UTC+02:00)

ISS - Pass Details

Date: 15 March 2018
Orbit: 403 x 408 km, 51.6° (Epoch: 21 September)

Event Time Altitude Azimuth Distance (km) Brightness Sun altitude
Exits shadow 04:24:51 31° 273° (W) 751 -3.0 -14.8°
Maximum altitude 04:26:13 63° 204° (SSW) 469 -3.8 -14.6°
Drops below altitude 10° 04:29:30 10° 122° (ESE) 1,480 -0.3 -14.1°
Sets 04:31:39 0° 119° (ESE) 2,362 0.8 -13.7°
